Home > Weather > Qarshi > Past weeks

Flag for Uzbekistan Weather for the Past 2 Weeks in Qarshi, Uzbekistan

Now
64 °F

Clear.


Feels Like: 64 °F
Forecast: 58 / 80 °F
Wind: 5 mph from South

Location: Samarkand

Current Time: May 2, 2016 at 6:32:10 AM

Latest Report: May 2, 2016 at 5:30 AM


Visibility: N/A

Pressure: 29.92 "Hg

Humidity: 64%

Dew Point: 52 °F

Location of QarshiLocation

Historic Weather in Qarshi — Graph

°F

Qarshi Temperature Yesterday

Maximum temperature yesterday: 88 °F (at 1:00 PM)
Minimum temperature yesterday: 64 °F (at 3:30 AM)
Average temperature yesterday: 75 °F

High & Low Weather Summary for the Past Weeks

 TemperatureHumidityPressure
High88 °F (Apr 30, 1:00 PM)100% (Apr 21, 5:30 AM)30.24 "Hg (Apr 21, 5:30 AM)
Low39 °F (Apr 21, 3:00 AM)18% (May 1, 1:00 PM)29.77 "Hg (Apr 17, 4:30 AM)
Average64 °F60%30.02 "Hg
* Reported Apr 17 4:30 AM — May 2 4:30 AM, Qarshi, Weather by CustomWeather, © 2016

Note: Actual official high and low records may vary slightly from our data, if they occured in-between our weather recording intervals... More about our weather records

Advertising

Qarshi Weather History for the Previous 24 Hours

Scroll right to see more
 ConditionsComfort  
Time TempWeatherWind HumidityBarometerVisibility
4:30 AM
Mon, May 2
63 °FClear.1 mph73%29.95 "Hg4 mi
4:00 AM64 °FClear.2 mph68%29.92 "Hg4 mi
3:30 AM64 °FClear.3 mph68%29.92 "Hg4 mi
3:00 AM64 °FClear.2 mph68%29.92 "Hg4 mi
2:30 AM63 °FClear.2 mph73%29.92 "Hg4 mi
2:00 AM64 °FClear.3 mph68%29.92 "Hg4 mi
1:30 AM63 °FClear.No wind73%29.89 "Hg4 mi
1:00 AM63 °FClear.No wind73%29.89 "Hg4 mi
12:30 AM63 °FClear.2 mph73%29.89 "Hg4 mi
12:00 AM63 °FClear.No wind73%29.89 "Hg4 mi
11:30 PM
Sun, May 1
66 °FClear.No wind64%29.89 "Hg4 mi
11:00 PM66 °FClear.No wind64%29.89 "Hg4 mi
10:30 PM66 °FClear.No wind64%29.89 "Hg4 mi
10:00 PM66 °FClear.No wind64%29.89 "Hg4 mi
9:30 PM68 °FClear.2 mph60%29.89 "Hg4 mi
9:00 PM68 °FClear.No wind60%29.89 "Hg4 mi
8:30 PM72 °FClear.No wind53%29.89 "Hg4 mi
8:00 PM73 °FClear.8 mph50%29.89 "Hg4 mi
7:30 PM72 °FClear.8 mph57%29.86 "Hg4 mi
7:00 PM73 °FClear.9 mph50%29.86 "HgN/A
6:30 PM73 °FClear.12 mph53%29.86 "HgN/A
6:00 PM75 °FClear.15 mph47%29.83 "HgN/A
5:30 PM77 °FClear.13 mph51%29.83 "HgN/A
5:00 PM81 °FClear.9 mph37%29.80 "HgN/A
4:30 PM84 °FClear.12 mph33%29.80 "HgN/A
4:00 PM84 °FClear.15 mph25%29.80 "HgN/A
3:30 PM86 °FClear.14 mph24%29.83 "HgN/A
3:00 PM86 °FClear.9 mph33%29.83 "HgN/A
2:30 PM86 °FClear.9 mph27%29.83 "HgN/A
2:00 PM86 °FClear.12 mph25%29.83 "HgN/A
1:30 PM86 °FClear.13 mph25%29.83 "HgN/A
1:00 PM88 °FClear.16 mph18%29.83 "HgN/A
12:30 PM86 °FClear.17 mph24%29.83 "HgN/A
11:30 AM84 °FClear.6 mph37%29.83 "HgN/A
11:00 AM82 °FClear.9 mph42%29.83 "HgN/A
10:30 AM84 °FClear.10 mph37%29.83 "HgN/A
10:00 AM86 °FClear.8 mph29%29.83 "HgN/A
9:00 AM82 °FClear.8 mph25%29.80 "HgN/A
8:30 AM79 °FClear.8 mph30%29.80 "HgN/A
8:00 AM77 °FClear.10 mph32%29.80 "HgN/A
7:00 AM72 °FClear.10 mph36%29.80 "HgN/A
6:30 AM70 °FClear.8 mph40%29.80 "HgN/A
6:00 AM68 °FClear.8 mph46%29.80 "HgN/A
Weather by CustomWeather, © 2016

See weather overviewHow to use our weather pages